Flag for U.S.A. Weather past 2 weeks in Aspen, Colorado, U.S.A.

Now
75 °F

Partly sunny.


Feels Like: 77 °F
Forecast: 48 / 74 °F
Wind: 12 mph from North

Location: Aspen-Pitkin County Airport

Current Time: Aug 4, 2015 at 5:12:55 PM

Latest Report: Aug 4, 2015 at 3:53 PM


Visibility: 10 mi

Pressure: 29.94 "Hg (22.69 "Hg at 2411m altitude)

Humidity: 30%

Dew point: 41 °F

Location of AspenLocation

Historic Weather in Aspen — Graph

°F

Aspen temperature yesterday

Maximum temperature yesterday: 73 °F (at 2:53 PM)
Minimum temperature yesterday: 52 °F (at 4:53 AM)
Average temperature yesterday: 58 °F

Past Weeks' High & Low Weather Summary

 TemperatureHumidityPressure
High82 °F (Jul 30, 2:53 PM)93% (Jul 21, 2:53 AM)30.30 "Hg (Jul 21, 2:53 AM)
Low44 °F (Jul 28, 6:53 AM)13% (Jul 30, 3:53 PM)29.69 "Hg (Jul 27, 3:53 PM)
Average62 °F56%29.98 "Hg
* Reported Jul 20 4:01 PM — Aug 4 3:53 PM, Aspen, Weather by CustomWeather, © 2015

Note: Actual official high and low records may vary slightly from our data, if they occured in-between our weather recording intervals... More about our weather records

Advertising

Aspen weather history for previous 24 hours

 ConditionsComfort  
Time TempWeatherWind HumidityBarometerVisibility
3:53 PM
Tue, Aug 4
75 °FPartly sunny.12 mph30%29.94 "Hg10 mi
2:53 PM73 °FPartly sunny.16 mph32%29.96 "Hg10 mi
1:53 PM73 °FPartly sunny.13 mph34%29.97 "Hg10 mi
12:53 PM73 °FScattered clouds.13 mph36%29.96 "Hg10 mi
11:53 AM72 °FSunny.13 mph37%29.97 "Hg10 mi
10:53 AM70 °FSunny.12 mph42%29.98 "Hg10 mi
9:53 AM65 °FSunny.6 mph47%29.98 "Hg10 mi
8:53 AM60 °FSunny.No wind53%30.01 "Hg10 mi
7:53 AM53 °FSunny.No wind69%30.01 "Hg10 mi
6:53 AM48 °FPassing clouds.5 mph80%30.03 "Hg10 mi
5:53 AM47 °FClear.5 mph83%30.01 "Hg10 mi
4:53 AM50 °FClear.8 mph77%29.97 "Hg10 mi
3:53 AM52 °FClear.9 mph75%29.97 "Hg10 mi
2:53 AM54 °FPassing clouds.7 mph72%29.93 "Hg10 mi
2:00 AM53 °FThundershowers. Passing clouds.5 mph74%30.30 "Hg10 mi
12:53 AM52 °FPassing clouds.7 mph75%29.95 "Hg10 mi
11:53 PM
Mon, Aug 3
52 °FPassing clouds.6 mph77%29.97 "Hg10 mi
10:53 PM52 °FClear.7 mph80%29.99 "Hg10 mi
9:53 PM54 °FClear.6 mph80%29.99 "Hg10 mi
8:53 PM56 °FSunny.7 mph81%29.98 "Hg10 mi
7:53 PM61 °FSunny.8 mph67%29.95 "Hg10 mi
6:53 PM62 °FScattered clouds.8 mph65%29.95 "Hg10 mi
5:53 PM61 °FPartly sunny.3 mph70%29.97 "Hg10 mi
5:02 PM61 °FThundershowers. Broken clouds.12 mph70%30.30 "Hg10 mi
Weather by CustomWeather, © 2015

See weather overviewHow to use our weather pages